TimeCST,TemperatureF,Dew PointF,Humidity,Sea Level PressureIn,VisibilityMPH,Wind Direction,Wind SpeedMPH,Gust SpeedMPH,PrecipitationIn,Events,Conditions,WindDirDegrees,DateUTC
12:15 AM,32.0,30.2,93,30.03,10.0,WNW,5.8,-,N/A,,Clear,300,2011-11-23 06:15:00
12:35 AM,32.0,30.2,93,30.03,10.0,NW,5.8,-,N/A,,Clear,310,2011-11-23 06:35:00
12:55 AM,32.0,30.2,93,30.04,5.0,WNW,9.2,-,N/A,,Clear,300,2011-11-23 06:55:00
1:15 AM,32.0,32.0,100,30.04,2.5,WNW,8.1,-,N/A,,Mostly Cloudy,300,2011-11-23 07:15:00
1:35 AM,32.0,32.0,100,30.05,1.0,WNW,5.8,-,N/A,,Overcast,300,2011-11-23 07:35:00
1:55 AM,32.0,32.0,100,30.06,0.5,WNW,10.4,-,N/A,Fog,Light Freezing Fog,300,2011-11-23 07:55:00
2:35 AM,32.0,32.0,100,30.06,0.5,WNW,6.9,-,N/A,Fog,Light Freezing Fog,300,2011-11-23 08:35:00
2:55 AM,32.0,32.0,100,30.07,0.5,West,6.9,-,N/A,Fog,Light Freezing Fog,280,2011-11-23 08:55:00
3:15 AM,32.0,32.0,100,30.07,0.5,WNW,4.6,-,N/A,Fog,Light Freezing Fog,290,2011-11-23 09:15:00
3:35 AM,32.0,32.0,100,30.08,0.5,WNW,8.1,-,N/A,Fog,Light Freezing Fog,300,2011-11-23 09:35:00
3:55 AM,32.0,32.0,100,30.08,0.5,NW,5.8,-,N/A,Fog,Light Freezing Fog,310,2011-11-23 09:55:00
4:15 AM,30.2,30.2,100,30.09,0.5,WNW,5.8,-,N/A,Fog,Light Freezing Fog,300,2011-11-23 10:15:00
4:35 AM,32.0,32.0,100,30.10,0.5,NW,8.1,-,N/A,Fog,Light Freezing Fog,320,2011-11-23 10:35:00
5:45 AM,30.2,30.2,100,30.13,3.0,NW,6.9,-,N/A,,Overcast,320,2011-11-23 11:45:00
6:45 AM,30.2,30.2,100,30.16,2.0,WNW,10.4,-,N/A,,Overcast,300,2011-11-23 12:45:00
7:45 AM,30.2,30.2,100,30.17,1.0,WNW,4.6,-,N/A,,Overcast,290,2011-11-23 13:45:00
8:45 AM,30.2,30.2,100,30.18,1.8,West,4.6,-,N/A,,Overcast,270,2011-11-23 14:45:00
9:45 AM,33.8,32.0,93,30.19,5.0,West,4.6,-,N/A,,Scattered Clouds,280,2011-11-23 15:45:00
10:45 AM,37.4,32.0,81,30.19,10.0,West,4.6,-,N/A,,Clear,280,2011-11-23 16:45:00
11:45 AM,41.0,33.8,76,30.18,10.0,WNW,6.9,-,N/A,,Clear,300,2011-11-23 17:45:00
12:45 PM,42.8,33.8,70,30.17,10.0,West,5.8,-,N/A,,Clear,260,2011-11-23 18:45:00
2:45 PM,44.6,33.8,66,30.15,10.0,SW,10.4,-,N/A,,Clear,230,2011-11-23 20:45:00
3:45 PM,44.6,35.6,71,30.15,10.0,SW,9.2,-,N/A,,Clear,220,2011-11-23 21:45:00
4:45 PM,41.0,35.6,81,30.15,10.0,SSW,9.2,-,N/A,,Clear,200,2011-11-23 22:45:00
5:45 PM,39.2,35.6,87,30.16,10.0,SSW,9.2,-,N/A,,Clear,210,2011-11-23 23:45:00
7:45 PM,37.4,33.8,87,30.17,10.0,SW,11.5,-,N/A,,Clear,220,2011-11-24 01:45:00
8:35 PM,35.6,32.0,87,30.17,7.0,SW,6.9,-,N/A,,Clear,230,2011-11-24 02:35:00
8:55 PM,35.6,32.0,87,30.17,7.0,SW,4.6,-,N/A,,Clear,230,2011-11-24 02:55:00
9:15 PM,35.6,32.0,87,30.17,7.0,WSW,3.5,-,N/A,,Clear,240,2011-11-24 03:15:00
9:35 PM,35.6,32.0,87,30.17,5.0,WSW,4.6,-,N/A,,Clear,240,2011-11-24 03:35:00
9:55 PM,35.6,32.0,87,30.16,5.0,SW,4.6,-,N/A,,Clear,230,2011-11-24 03:55:00
10:15 PM,33.8,32.0,93,30.16,5.0,WSW,4.6,-,N/A,,Clear,250,2011-11-24 04:15:00
10:35 PM,33.8,32.0,93,30.16,4.0,WSW,9.2,-,N/A,,Mostly Cloudy,250,2011-11-24 04:35:00
10:55 PM,35.6,33.8,93,30.15,3.0,WSW,10.4,19.6,N/A,,Overcast,240,2011-11-24 04:55:00
11:15 PM,35.6,33.8,93,30.15,3.0,SW,10.4,-,N/A,,Overcast,230,2011-11-24 05:15:00
11:35 PM,35.6,33.8,93,30.15,3.0,WSW,10.4,-,N/A,,Overcast,240,2011-11-24 05:35:00
11:55 PM,35.6,33.8,93,30.15,3.0,WSW,11.5,16.1,N/A,,Overcast,240,2011-11-24 05:55:00